N0NB Weather Reports


time (UTC)temp
C
wind
direction
speed
KPH
gust
KPH
rain 1hr
cm
rain 24hr
cm
rain mn
cm
humidity
%
barometer
mb
20260504221017 29 225 3.2 6.4 0.00 0.00 0.00 24 999.7
20260504220017 29 0 3.2 6.4 0.00 0.00 0.00 29 999.8
20260504215017 29 293 6.4 12.9 0.00 0.00 0.00 21 999.9
20260504214017 30 338 6.4 14.5 0.00 0.00 0.00 20 999.9
20260504213017 30 45 4.8 14.5 0.00 0.00 0.00 21 1000.1
20260504212016 30 45 6.4 19.3 0.00 0.00 0.00 19 1000.1
20260504211016 30 0 3.2 8.0 0.00 0.00 0.00 21 1000.2
20260504210016 30 338 1.6 4.8 0.00 0.00 0.00 25 1000.3
20260504205016 30 293 4.8 11.3 0.00 0.00 0.00 20 1000.5
20260504204016 29 270 8.0 20.9 0.00 0.00 0.00 22 1000.6
20260504203016 29 270 6.4 12.9 0.00 0.00 0.00 19 1000.6
20260504202016 29 338 6.4 14.5 0.00 0.00 0.00 21 1000.8
20260504201016 29 270 3.2 9.7 0.00 0.00 0.00 26 1001.0
20260504200016 29 315 4.8 14.5 0.00 0.00 0.00 22 1001.1
20260504195016 28 315 4.8 14.5 0.00 0.00 0.00 23 1001.1
20260504194016 29 338 8.0 17.7 0.00 0.00 0.00 22 1001.3
20260504193017 29 338 4.8 9.7 0.00 0.00 0.00 21 1001.1
20260504192016 29 45 4.8 14.5 0.00 0.00 0.00 25 1001.2
20260504191016 28 315 6.4 14.5 0.00 0.00 0.00 23 1001.1
20260504190016 28 293 11.3 25.7 0.00 0.00 0.00 22 1001.3
20260504185016 28 23 6.4 16.1 0.00 0.00 0.00 24 1001.3
20260504184016 28 293 4.8 11.3 0.00 0.00 0.00 25 1001.4
20260504183016 28 315 8.0 16.1 0.00 0.00 0.00 24 1001.4
20260504182016 28 315 6.4 12.9 0.00 0.00 0.00 25 1001.5
20260504181016 28 338 8.0 17.7 0.00 0.00 0.00 25 1001.4
20260504180016 27 338 6.4 12.9 0.00 0.00 0.00 24 1001.6
20260504175016 27 338 11.3 22.5 0.00 0.00 0.00 24 1001.6
20260504174016 27 0 6.4 19.3 0.00 0.00 0.00 27 1001.7
20260504173016 27 338 8.0 17.7 0.00 0.00 0.00 24 1001.9
20260504172016 27 315 11.3 17.7 0.00 0.00 0.00 25 1002.0
20260504171016 27 338 9.7 25.7 0.00 0.00 0.00 27 1002.0
20260504151016 22 270 8.0 16.1 0.00 0.00 0.00 50 1002.1
20260504141016 17 270 9.7 16.1 0.00 0.00 0.00 60 1001.8
20260504081017 10 0.0 1.6 0.00 0.00 0.00 68 1002.8
20260504050017 13 0.0 0.0 0.00 0.00 0.00 59 1005.9
20260504045016 14 0.0 0.0 0.00 0.00 0.00 59 1005.7
20260504044016 14 0.0 0.0 0.00 0.00 0.00 58 1005.7
20260504043016 15 68 1.6 3.2 0.00 0.00 0.00 56 1005.8
20260504042016 15 68 3.2 4.8 0.00 0.00 0.00 55 1005.5
20260504041016 15 68 1.6 4.8 0.00 0.00 0.00 55 1005.5
20260504040016 15 68 1.6 4.8 0.00 0.00 0.00 54 1005.7
20260504035016 15 68 1.6 3.2 0.00 0.00 0.00 54 1005.6
20260504034016 15 68 1.6 3.2 0.00 0.00 0.00 54 1006.0
20260504033016 16 68 1.6 4.8 0.00 0.00 0.00 54 1006.2
20260504032016 16 0.0 3.2 0.00 0.00 0.00 54 1006.1
20260504031016 16 68 1.6 4.8 0.00 0.00 0.00 53 1006.2
20260504030016 16 68 1.6 3.2 0.00 0.00 0.00 52 1006.5
20260504025016 17 68 3.2 4.8 0.00 0.00 0.00 52 1006.5
20260504024016 17 68 1.6 4.8 0.00 0.00 0.00 51 1006.6
20260504023015 17 68 1.6 3.2 0.00 0.00 0.00 51 1006.3
20260504022016 17 68 1.6 3.2 0.00 0.00 0.00 49 1006.1
20260504021016 18 0.0 0.0 0.00 0.00 0.00 49 1006.5
20260504020015 18 68 1.6 3.2 0.00 0.00 0.00 47 1006.3
20260504015015 18 0.0 0.0 0.00 0.00 0.00 45 1006.1
20260504014015 18 0.0 1.6 0.00 0.00 0.00 45 1006.1
20260504013015 19 68 1.6 3.2 0.00 0.00 0.00 44 1005.8
20260504012015 20 0.0 3.2 0.00 0.00 0.00 43 1005.9
20260504011015 20 0.0 0.0 0.00 0.00 0.00 44 1006.0
20260504010015 21 68 1.6 3.2 0.00 0.00 0.00 42 1006.1
20260504005015 22 0.0 3.2 0.00 0.00 0.00 38 1006.2
20260504004015 22 68 1.6 3.2 0.00 0.00 0.00 36 1006.1
20260504003015 22 68 3.2 4.8 0.00 0.00 0.00 36 1006.2
20260504002015 22 68 4.8 12.9 0.00 0.00 0.00 35 1006.3
20260504001015 23 68 4.8 12.9 0.00 0.00 0.00 36 1006.4
20260504000015 23 68 1.6 3.2 0.00 0.00 0.00 41 1006.7
20260503235015 23 68 1.6 4.8 0.00 0.00 0.00 40 1006.9
20260503234015 25 68 1.6 4.8 0.00 0.00 0.00 39 1007.1
20260503233015 25 0.0 0.0 0.00 0.00 0.00 30 1007.1
20260503232015 25 68 1.6 3.2 0.00 0.00 0.00 34 1007.3
20260503231015 26 68 1.6 3.2 0.00 0.00 0.00 28 1007.5
20260503230015 26 68 3.2 6.4 0.00 0.00 0.00 28 1007.6
20260503225015 26 338 1.6 4.8 0.00 0.00 0.00 31 1007.6
20260503224015 26 0 1.6 3.2 0.00 0.00 0.00 32 1007.6
20260503223015 25 0.0 3.2 0.00 0.00 0.00 30 1007.6
20260503222015 26 45 3.2 14.5 0.00 0.00 0.00 29 1007.6